Time,TemperatureF,DewpointF,PressureIn,WindDirection,WindDirectionDegrees,WindSpeedMPH,WindSpeedGustMPH,Humidity,HourlyPrecipIn,Conditions,Clouds,dailyrainin,SoftwareType,DateUTC
2013-02-10 00:01:00,43.0,42.0,30.27,ENE,65,0.0,-999.0,96,-99.99,,,-99.99,,2013-02-10 08:01:00,
2013-02-10 00:21:00,43.0,42.0,30.27,ENE,65,0.0,-999.0,96,-99.99,,,-99.99,,2013-02-10 08:21:00,
2013-02-10 00:32:00,43.0,42.0,30.27,ENE,65,0.0,-999.0,96,-99.99,,,-99.99,,2013-02-10 08:32:00,
2013-02-10 00:43:00,43.0,42.0,30.27,ENE,65,0.0,-999.0,96,-99.99,,,-99.99,,2013-02-10 08:43:00,
2013-02-10 00:52:00,43.0,42.0,30.27,ENE,65,0.0,-999.0,96,-99.99,,,-99.99,,2013-02-10 08:52:00,
2013-02-10 01:01:00,43.0,42.0,30.27,ENE,65,0.0,-999.0,96,-99.99,,,-99.99,,2013-02-10 09:01:00,
2013-02-10 01:11:00,43.0,42.0,30.27,ENE,65,0.0,-999.0,96,-99.99,,,-99.99,,2013-02-10 09:11:00,
2013-02-10 01:21:00,43.0,42.0,30.27,ENE,65,0.0,-999.0,96,-99.99,,,-99.99,,2013-02-10 09:21:00,
2013-02-10 01:31:00,43.0,42.0,30.27,ENE,65,0.0,-999.0,96,-99.99,,,-99.99,,2013-02-10 09:31:00,
2013-02-10 01:41:00,43.0,42.0,30.27,ENE,65,0.0,-999.0,96,-99.99,,,-99.99,,2013-02-10 09:41:00,
2013-02-10 01:52:00,43.0,42.0,30.27,ENE,65,0.0,-999.0,96,-99.99,,,-99.99,,2013-02-10 09:52:00,
2013-02-10 02:01:00,43.0,42.0,30.27,ENE,65,0.0,-999.0,96,-99.99,,,-99.99,,2013-02-10 10:01:00,
2013-02-10 02:11:00,43.0,42.0,30.27,ENE,65,0.0,-999.0,96,-99.99,,,-99.99,,2013-02-10 10:11:00,
2013-02-10 02:21:00,43.0,42.0,30.27,ENE,65,0.0,-999.0,96,-99.99,,,-99.99,,2013-02-10 10:21:00,
2013-02-10 02:52:00,43.0,42.0,30.28,ENE,65,0.0,-999.0,96,-99.99,,,-99.99,,2013-02-10 10:52:00,
2013-02-10 03:01:00,43.0,42.0,30.28,ENE,65,0.0,-999.0,96,-99.99,,,-99.99,,2013-02-10 11:01:00,
2013-02-10 03:11:00,43.0,42.0,30.28,ENE,65,0.0,-999.0,96,-99.99,,,-99.99,,2013-02-10 11:11:00,
2013-02-10 03:21:00,43.0,42.0,30.27,ENE,65,0.0,-999.0,96,-99.99,,,-99.99,,2013-02-10 11:21:00,
2013-02-10 03:31:00,43.0,42.0,30.27,ENE,65,0.0,-999.0,96,-99.99,,,-99.99,,2013-02-10 11:31:00,
2013-02-10 03:42:00,43.0,42.0,30.27,ENE,65,0.0,-999.0,96,-99.99,,,-99.99,,2013-02-10 11:42:00,
2013-02-10 03:52:00,43.0,42.0,30.27,ENE,65,0.0,-999.0,96,-99.99,,,-99.99,,2013-02-10 11:52:00,
2013-02-10 04:01:00,43.0,42.0,30.27,ENE,65,0.0,-999.0,96,-99.99,,,-99.99,,2013-02-10 12:01:00,
2013-02-10 04:12:00,43.0,42.0,30.27,ENE,65,0.0,-999.0,96,-99.99,,,-99.99,,2013-02-10 12:12:00,
2013-02-10 04:21:00,43.0,42.0,30.27,ENE,65,0.0,-999.0,96,-99.99,,,-99.99,,2013-02-10 12:21:00,
2013-02-10 04:32:00,43.0,42.0,30.28,ENE,65,0.0,-999.0,96,-99.99,,,-99.99,,2013-02-10 12:32:00,
2013-02-10 04:41:00,43.0,42.0,30.28,ENE,65,0.0,-999.0,96,-99.99,,,-99.99,,2013-02-10 12:41:00,
2013-02-10 04:52:00,43.0,42.0,30.28,ENE,65,0.0,-999.0,96,-99.99,,,-99.99,,2013-02-10 12:52:00,
2013-02-10 05:02:00,43.0,42.0,30.28,ENE,65,0.0,-999.0,96,-99.99,,,-99.99,,2013-02-10 13:02:00,
2013-02-10 05:11:00,43.0,42.0,30.28,ENE,65,0.0,-999.0,96,-99.99,,,-99.99,,2013-02-10 13:11:00,
2013-02-10 05:21:00,43.0,42.0,30.28,ENE,65,0.0,-999.0,97,-99.99,,,-99.99,,2013-02-10 13:21:00,
2013-02-10 05:31:00,43.0,42.0,30.28,ENE,65,0.0,-999.0,97,-99.99,,,-99.99,,2013-02-10 13:31:00,
2013-02-10 05:42:00,43.0,42.0,30.28,ENE,65,0.0,-999.0,97,-99.99,,,-99.99,,2013-02-10 13:42:00,
2013-02-10 05:51:00,43.0,42.0,30.28,ENE,65,0.0,-999.0,97,-99.99,,,-99.99,,2013-02-10 13:51:00,
2013-02-10 06:01:00,43.0,42.0,30.28,ENE,65,0.0,-999.0,97,-99.99,,,-99.99,,2013-02-10 14:01:00,
2013-02-10 06:11:00,43.0,42.0,30.28,ENE,65,0.0,-999.0,97,-99.99,,,-99.99,,2013-02-10 14:11:00,
2013-02-10 06:21:00,43.0,42.0,30.28,ENE,65,0.0,-999.0,97,-99.99,,,-99.99,,2013-02-10 14:21:00,
2013-02-10 06:31:00,43.0,42.0,30.28,ENE,65,0.0,-999.0,97,-99.99,,,-99.99,,2013-02-10 14:31:00,
2013-02-10 06:41:00,43.0,42.0,30.28,ENE,65,0.0,-999.0,97,-99.99,,,-99.99,,2013-02-10 14:41:00,
2013-02-10 06:51:00,43.0,42.0,30.29,ENE,65,0.0,-999.0,97,-99.99,,,-99.99,,2013-02-10 14:51:00,
2013-02-10 06:52:00,42.0,41.0,30.29,ENE,65,0.0,-999.0,97,-99.99,,,-99.99,,2013-02-10 14:52:00,
2013-02-10 07:01:00,42.0,41.0,30.29,ENE,65,0.0,-999.0,97,-99.99,,,-99.99,,2013-02-10 15:01:00,
2013-02-10 07:11:00,42.0,41.0,30.29,ENE,65,0.0,-999.0,97,-99.99,,,-99.99,,2013-02-10 15:11:00,
2013-02-10 07:21:00,43.0,42.0,30.29,ENE,65,0.0,-999.0,97,-99.99,,,-99.99,,2013-02-10 15:21:00,
2013-02-10 07:31:00,43.0,42.0,30.29,ENE,65,0.0,-999.0,97,-99.99,,,-99.99,,2013-02-10 15:31:00,
2013-02-10 07:41:00,43.0,42.0,30.29,ENE,65,0.0,-999.0,97,-99.99,,,-99.99,,2013-02-10 15:41:00,
2013-02-10 08:01:00,42.0,41.0,30.30,ENE,65,0.0,-999.0,97,-99.99,,,-99.99,,2013-02-10 16:01:00,
2013-02-10 08:11:00,42.0,41.0,30.30,ENE,65,0.0,-999.0,97,-99.99,,,-99.99,,2013-02-10 16:11:00,
2013-02-10 08:21:00,42.0,41.0,30.30,ENE,65,0.0,-999.0,97,-99.99,,,-99.99,,2013-02-10 16:21:00,
2013-02-10 08:32:00,42.0,41.0,30.30,ENE,65,0.0,-999.0,97,-99.99,,,-99.99,,2013-02-10 16:32:00,
2013-02-10 08:41:00,43.0,42.0,30.31,ENE,65,0.0,-999.0,97,-99.99,,,-99.99,,2013-02-10 16:41:00,
2013-02-10 08:52:00,43.0,42.0,30.31,ENE,65,0.0,-999.0,97,-99.99,,,-99.99,,2013-02-10 16:52:00,
2013-02-10 09:01:00,43.0,42.0,30.30,ENE,65,0.0,-999.0,97,-99.99,,,-99.99,,2013-02-10 17:01:00,
2013-02-10 09:11:00,43.0,42.0,30.30,ENE,65,0.0,-999.0,97,-99.99,,,-99.99,,2013-02-10 17:11:00,
2013-02-10 09:21:00,43.0,42.0,30.31,NE,49,1.0,-999.0,97,-99.99,,,-99.99,,2013-02-10 17:21:00,
2013-02-10 09:31:00,43.0,42.0,30.31,NE,36,1.0,-999.0,97,-99.99,,,-99.99,,2013-02-10 17:31:00,
2013-02-10 09:41:00,43.0,42.0,30.31,NE,52,1.0,-999.0,97,-99.99,,,-99.99,,2013-02-10 17:41:00,
2013-02-10 09:52:00,43.0,42.0,30.31,NE,52,1.0,-999.0,97,-99.99,,,-99.99,,2013-02-10 17:52:00,
2013-02-10 10:01:00,44.0,43.0,30.31,ENE,63,1.0,-999.0,96,-99.99,,,-99.99,,2013-02-10 18:01:00,
2013-02-10 10:11:00,44.0,43.0,30.31,ENE,63,1.0,-999.0,96,-99.99,,,-99.99,,2013-02-10 18:11:00,
2013-02-10 10:21:00,44.0,43.0,30.31,ENE,63,1.0,-999.0,96,-99.99,,,-99.99,,2013-02-10 18:21:00,
2013-02-10 10:31:00,44.0,42.0,30.31,NE,50,0.0,-999.0,94,-99.99,,,-99.99,,2013-02-10 18:31:00,
2013-02-10 10:41:00,44.0,42.0,30.31,NE,50,0.0,-999.0,94,-99.99,,,-99.99,,2013-02-10 18:41:00,
2013-02-10 10:52:00,44.0,42.0,30.31,NE,54,0.0,-999.0,93,-99.99,,,-99.99,,2013-02-10 18:52:00,
2013-02-10 11:01:00,44.0,42.0,30.32,ENE,71,1.0,-999.0,92,-99.99,,,-99.99,,2013-02-10 19:01:00,
2013-02-10 11:11:00,45.0,42.0,30.31,ENE,64,1.0,-999.0,90,-99.99,,,-99.99,,2013-02-10 19:11:00,
2013-02-10 11:21:00,45.0,42.0,30.31,ENE,64,1.0,-999.0,90,-99.99,,,-99.99,,2013-02-10 19:21:00,
2013-02-10 11:31:00,45.0,42.0,30.32,ENE,65,0.0,-999.0,89,-99.99,,,-99.99,,2013-02-10 19:31:00,
2013-02-10 11:42:00,45.0,42.0,30.31,ENE,70,1.0,-999.0,88,-99.99,,,-99.99,,2013-02-10 19:42:00,
2013-02-10 11:52:00,45.0,42.0,30.31,ENE,70,1.0,-999.0,88,-99.99,,,-99.99,,2013-02-10 19:52:00,
2013-02-10 12:01:00,45.0,41.0,30.31,ENE,63,2.0,-999.0,87,-99.99,,,-99.99,,2013-02-10 20:01:00,
2013-02-10 12:11:00,45.0,41.0,30.31,ENE,63,2.0,-999.0,87,-99.99,,,-99.99,,2013-02-10 20:11:00,
2013-02-10 12:21:00,45.0,41.0,30.31,ENE,63,2.0,-999.0,86,-99.99,,,-99.99,,2013-02-10 20:21:00,
2013-02-10 12:31:00,45.0,41.0,30.31,ENE,63,2.0,-999.0,86,-99.99,,,-99.99,,2013-02-10 20:31:00,
2013-02-10 12:41:00,46.0,41.0,30.30,North,355,1.0,-999.0,83,-99.99,,,-99.99,,2013-02-10 20:41:00,
2013-02-10 12:52:00,46.0,41.0,30.30,North,355,1.0,-999.0,83,-99.99,,,-99.99,,2013-02-10 20:52:00,
2013-02-10 13:02:00,46.0,41.0,30.29,WNW,299,1.0,-999.0,82,-99.99,,,-99.99,,2013-02-10 21:02:00,
2013-02-10 13:11:00,46.0,41.0,30.29,WNW,299,1.0,-999.0,82,-99.99,,,-99.99,,2013-02-10 21:11:00,
2013-02-10 13:21:00,46.0,41.0,30.29,North,351,2.0,-999.0,81,-99.99,,,-99.99,,2013-02-10 21:21:00,
2013-02-10 13:31:00,46.0,41.0,30.29,NE,53,2.0,-999.0,81,-99.99,,,-99.99,,2013-02-10 21:31:00,
2013-02-10 13:41:00,46.0,39.0,30.29,NW,319,2.0,-999.0,75,-99.99,,,-99.99,,2013-02-10 21:41:00,
2013-02-10 13:51:00,46.0,39.0,30.29,NW,319,2.0,-999.0,75,-99.99,,,-99.99,,2013-02-10 21:51:00,
2013-02-10 14:01:00,46.0,39.0,30.29,North,360,2.0,-999.0,75,-99.99,,,-99.99,,2013-02-10 22:01:00,
2013-02-10 14:11:00,46.0,39.0,30.29,NE,44,2.0,-999.0,77,-99.99,,,-99.99,,2013-02-10 22:11:00,
2013-02-10 14:21:00,46.0,39.0,30.29,NE,44,2.0,-999.0,77,-99.99,,,-99.99,,2013-02-10 22:21:00,
2013-02-10 14:31:00,46.0,39.0,30.29,NE,44,2.0,-999.0,77,-99.99,,,-99.99,,2013-02-10 22:31:00,
2013-02-10 14:41:00,46.0,39.0,30.29,NE,44,2.0,-999.0,77,-99.99,,,-99.99,,2013-02-10 22:41:00,